sat.trackr.live / text

‹ back to catalog

STARLINK-3086

NORAD 49178 · 2021-082BA

PAYLOAD ACTIVE UNKNOWN

§ Identity

Operator
Country
US
Launch date
2021-09-14
Launch site
AFWTR
Launch vehicle
Mass (kg)
RCS (m²)

Purposes: comms

External: N2YO · Heavens-Above · Gunter

§ Orbital elements

Epoch: 2026-05-25T02:59:54.623328Z

Period
96.11 min
Inclination
69.9993°
Eccentricity
0.0003190
Mean motion
14.98299661 rev/d
Perigee alt
569.9 km
Apogee alt
574.4 km
Semi-major
6,950.3 km
B*
-3.8490e-4
RAAN
101.7238°
Arg perigee
265.3902°
Mean anomaly
94.6893°
Rev number
25,858

§ Raw data

STARLINK-30861 49178U 21082BA  26145.12493777 -.00004679  00000+0 -38490-3 0  99942 49178  69.9993 101.7238 0003190 265.3902  94.6893 14.98299661258580

JSON: /api/v1/satellites/49178 · /tle

For live sub-satellite position, see the globe view (requires WebGL).

§ Visibility from observer

Set your observer location to see the next 7 days of passes ≥ 10°. The values pass through the URL so the page stays shareable.

No JS? Fill the form by hand. The geolocation button needs JavaScript.